Weather History for Bainbridge, GA

Change the Weather History Date:

Thursday, February 6, 2014

  Actual Average (KMAI) Record (KMAI)
Temperature  
Mean Temperature 42 °F 53 °F  
Max Temperature 46 °F 64 °F 77 °F (2008)
Min Temperature 37 °F 42 °F 25 °F (2000)
Degree Days  
Heating Degree Days 24    
Month to date heating degree days  
Since 1 July heating degree days  
Cooling Degree Days 0    
Month to date cooling degree days  
Year to date cooling degree days  
Moisture  
Dew Point 35 °F    
Average Humidity 77    
Maximum Humidity 93    
Minimum Humidity 57    
Precipitation  
Precipitation 0.00 in 0.17 in 1.75 in (2004)
Month to date precipitation 1.00  
Year to date precipitation 6.04  
Sea Level Pressure  
Sea Level Pressure 30.26 in    
Wind  
Wind Speed 8 mph (North)    
Max Wind Speed 12 mph    
Max Gust Speed 16 mph    
Visibility 10 miles    
Events Rain    
T = Trace of Precipitation, MM = Missing Value Source: NWS Daily Summary

Daily Weather History Graph

Daily Weather History Graph

Search for Another Location

Airport:

Trip Planner

Search our weather history database for the weather conditions in past years. The results will help you decide how hot, cold, wet, or windy it might be!

Date:

Astronomy

Feb. 06, 2014 Rise Set
Actual Time 7:26 AM EST 6:18 PM EST
Civil Twilight 7:01 AM EST 6:43 PM EST
Nautical Twilight 6:33 AM EST 7:12 PM EST
Astronomical Twilight 6:04 AM EST 7:40 PM EST
Moon 11:51 AM EST (2/6) 12:42 AM EST (2/6)
Length of Visible Light 11h 41m
Length of Day
10h 51m
Waxing Crescent, 49% of the Moon is Illuminated
Feb 6
Waxing Crescent
Feb 6
First Quarter
Feb 14
Full
Feb 22
Last Quarter
Mar 1
New

Hourly Weather History & Observations

Time (EST) Temp. Windchill Dew Point Humidity Pressure Visibility Wind Dir Wind Speed Gust Speed Precip Events Conditions
12:15 AM 44.6 °F 39.7 °F 35.6 °F 71% 30.22 in 10.0 mi NNW 9.2 mph - N/A   Clear
12:35 AM 42.8 °F 37.0 °F 35.6 °F 76% 30.22 in 10.0 mi NNW 10.4 mph - N/A   Clear
12:55 AM 42.8 °F 37.5 °F 35.6 °F 76% 30.22 in 10.0 mi NNW 9.2 mph - N/A   Clear
1:15 AM 42.8 °F 37.5 °F 35.6 °F 76% 30.23 in 10.0 mi NNW 9.2 mph - N/A   Clear
1:35 AM 42.8 °F 37.0 °F 35.6 °F 76% 30.23 in 10.0 mi North 10.4 mph 16.1 mph N/A   Clear
1:55 AM 42.8 °F 38.0 °F 35.6 °F 76% 30.22 in 10.0 mi North 8.1 mph - N/A   Clear
2:15 AM 41.0 °F 35.2 °F 33.8 °F 76% 30.23 in 10.0 mi North 9.2 mph - N/A   Clear
2:35 AM 41.0 °F 35.2 °F 33.8 °F 76% 30.22 in 10.0 mi North 9.2 mph - N/A   Clear
2:55 AM 41.0 °F 37.1 °F 33.8 °F 76% 30.22 in 10.0 mi NNW 5.8 mph - N/A   Clear
3:15 AM 41.0 °F 36.4 °F 33.8 °F 76% 30.22 in 10.0 mi NNW 6.9 mph - N/A   Clear
3:35 AM 41.0 °F 36.4 °F 33.8 °F 76% 30.21 in 10.0 mi North 6.9 mph - N/A   Clear
3:55 AM 41.0 °F 36.4 °F 33.8 °F 76% 30.21 in 10.0 mi North 6.9 mph - N/A   Clear
4:15 AM 41.0 °F 37.1 °F 33.8 °F 76% 30.21 in 10.0 mi North 5.8 mph - N/A   Clear
4:35 AM 39.2 °F 34.2 °F 33.8 °F 81% 30.21 in 10.0 mi North 6.9 mph - N/A   Clear
4:55 AM 39.2 °F 35.0 °F 33.8 °F 81% 30.22 in 10.0 mi North 5.8 mph - N/A   Clear
5:15 AM 37.4 °F 31.4 °F 32.0 °F 81% 30.22 in 10.0 mi North 8.1 mph - N/A   Clear
5:35 AM 37.4 °F 33.8 °F 32.0 °F 81% 30.22 in 10.0 mi NNE 4.6 mph - N/A   Clear
5:55 AM 37.4 °F 31.4 °F 32.0 °F 81% 30.22 in 10.0 mi North 8.1 mph - N/A   Clear
6:15 AM 37.4 °F 31.4 °F 32.0 °F 81% 30.23 in 10.0 mi North 8.1 mph - N/A   Clear
6:35 AM 37.4 °F 30.8 °F 32.0 °F 81% 30.23 in 10.0 mi North 9.2 mph - N/A   Clear
6:55 AM 37.4 °F 30.8 °F 32.0 °F 81% 30.25 in 10.0 mi North 9.2 mph - N/A   Clear
7:15 AM 37.4 °F 31.4 °F 32.0 °F 81% 30.26 in 10.0 mi North 8.1 mph - N/A   Clear
7:35 AM 37.4 °F 30.8 °F 32.0 °F 81% 30.27 in 10.0 mi North 9.2 mph 16.1 mph N/A   Scattered Clouds
7:55 AM 37.4 °F 30.8 °F 32.0 °F 81% 30.27 in 10.0 mi North 9.2 mph - N/A   Scattered Clouds
8:15 AM 37.4 °F 31.4 °F 32.0 °F 81% 30.29 in 10.0 mi North 8.1 mph - N/A   Clear
8:35 AM 39.2 °F 34.2 °F 32.0 °F 75% 30.31 in 10.0 mi North 6.9 mph - N/A   Clear
8:55 AM 41.0 °F 35.2 °F 32.0 °F 70% 30.29 in 10.0 mi NNE 9.2 mph - N/A   Clear
9:15 AM 41.0 °F 36.4 °F 33.8 °F 76% 30.30 in 10.0 mi NNE 6.9 mph - N/A   Clear
9:35 AM 41.0 °F 34.7 °F 32.0 °F 70% 30.30 in 10.0 mi North 10.4 mph - N/A   Scattered Clouds
9:55 AM 42.8 °F 36.6 °F 33.8 °F 70% 30.30 in 10.0 mi North 11.5 mph 16.1 mph N/A   Clear
10:15 AM 42.8 °F 38.6 °F 32.0 °F 66% 30.30 in 10.0 mi NE 6.9 mph - N/A   Clear
10:35 AM 42.8 °F 37.0 °F 32.0 °F 66% 30.30 in 10.0 mi NNE 10.4 mph - N/A   Clear
10:55 AM 42.8 °F 37.0 °F 32.0 °F 66% 30.31 in 10.0 mi NNE 10.4 mph - N/A   Clear
11:15 AM 44.6 °F 39.7 °F 32.0 °F 61% 30.29 in 10.0 mi NNE 9.2 mph - N/A   Clear
11:35 AM 44.6 °F 39.2 °F 32.0 °F 61% 30.28 in 10.0 mi North 10.4 mph - N/A   Clear
11:55 AM 44.6 °F 39.2 °F 32.0 °F 61% 30.26 in 10.0 mi NNE 10.4 mph - N/A   Clear
12:15 PM 44.6 °F 39.7 °F 32.0 °F 61% 30.28 in 10.0 mi NNE 9.2 mph - N/A   Clear
12:35 PM 46.4 °F 42.4 °F 32.0 °F 57% 30.25 in 10.0 mi NNE 8.1 mph - N/A   Clear
12:55 PM 46.4 °F 42.9 °F 32.0 °F 57% 30.25 in 10.0 mi North 6.9 mph - N/A   Clear
1:15 PM 44.6 °F 43.1 °F 33.8 °F 66% 30.23 in 10.0 mi North 3.5 mph - N/A   Clear
1:35 PM 44.6 °F 41.4 °F 33.8 °F 66% 30.23 in 10.0 mi North 5.8 mph - N/A Rain Light Rain
1:55 PM 44.6 °F 40.7 °F 33.8 °F 66% 30.24 in 10.0 mi NW 6.9 mph - N/A Rain Light Rain
2:15 PM 44.6 °F 42.2 °F 33.8 °F 66% 30.23 in 10.0 mi North 4.6 mph - N/A Rain Light Rain
2:35 PM 44.6 °F 41.4 °F 35.6 °F 71% 30.23 in 10.0 mi North 5.8 mph - N/A Rain Light Rain
2:55 PM 44.6 °F 40.7 °F 35.6 °F 71% 30.23 in 10.0 mi North 6.9 mph - N/A Rain Light Rain
3:15 PM 44.6 °F 41.4 °F 35.6 °F 71% 30.22 in 10.0 mi North 5.8 mph - N/A Rain Light Rain
3:35 PM 44.6 °F 43.1 °F 35.6 °F 71% 30.22 in 10.0 mi NNE 3.5 mph - N/A Rain Light Rain
3:55 PM 44.6 °F 41.4 °F 37.4 °F 76% 30.22 in 10.0 mi NNE 5.8 mph - N/A Rain Light Rain
4:15 PM 42.8 °F 38.6 °F 37.4 °F 81% 30.22 in 10.0 mi North 6.9 mph - N/A Rain Light Rain
4:35 PM 42.8 °F 39.3 °F 37.4 °F 81% 30.24 in 10.0 mi NNW 5.8 mph - N/A Rain Light Rain
4:55 PM 42.8 °F 40.1 °F 37.4 °F 81% 30.24 in 10.0 mi North 4.6 mph - N/A Rain Light Rain
5:15 PM 44.6 °F 40.7 °F 37.4 °F 76% 30.27 in 10.0 mi NW 6.9 mph - N/A   Overcast
5:35 PM 44.6 °F 40.7 °F 37.4 °F 76% 30.28 in 10.0 mi NNW 6.9 mph - N/A   Overcast
5:55 PM 42.8 °F 38.0 °F 37.4 °F 81% 30.29 in 10.0 mi NNW 8.1 mph - N/A Rain Light Rain
6:15 PM 42.8 °F 38.0 °F 37.4 °F 81% 30.30 in 7.0 mi NNW 8.1 mph - N/A Rain Rain
6:35 PM 42.8 °F 39.3 °F 39.2 °F 87% 30.31 in 10.0 mi NNW 5.8 mph - N/A Rain Light Rain
6:55 PM 42.8 °F 39.3 °F 39.2 °F 87% 30.30 in 10.0 mi North 5.8 mph - N/A   Mostly Cloudy
7:15 PM 42.8 °F 40.1 °F 41.0 °F 93% 30.32 in 10.0 mi NNW 4.6 mph - N/A Rain Light Rain
7:35 PM 42.8 °F 39.3 °F 39.2 °F 87% 30.31 in 10.0 mi NNW 5.8 mph - N/A   Overcast
7:55 PM 42.8 °F 39.3 °F 41.0 °F 93% 30.32 in 10.0 mi NNW 5.8 mph - N/A   Overcast
8:15 PM 42.8 °F 38.6 °F 39.2 °F 87% 30.32 in 10.0 mi North 6.9 mph - N/A   Overcast
8:35 PM 42.8 °F 39.3 °F 39.2 °F 87% 30.29 in 10.0 mi NE 5.8 mph - N/A   Mostly Cloudy
8:55 PM 42.8 °F 41.1 °F 37.4 °F 81% 30.29 in 10.0 mi NE 3.5 mph - N/A   Clear
9:15 PM 42.8 °F 41.1 °F 39.2 °F 87% 30.29 in 10.0 mi NNE 3.5 mph - N/A   Light Drizzle
9:35 PM 42.8 °F 40.1 °F 39.2 °F 87% 30.30 in 10.0 mi North 4.6 mph - N/A   Clear
9:55 PM 42.8 °F 41.1 °F 39.2 °F 87% 30.30 in 10.0 mi North 3.5 mph - N/A   Clear
10:15 PM 42.8 °F 40.1 °F 39.2 °F 87% 30.29 in 10.0 mi North 4.6 mph - N/A   Clear
10:35 PM 42.8 °F 41.1 °F 41.0 °F 93% 30.31 in 10.0 mi NW 3.5 mph - N/A   Clear
10:55 PM 42.8 °F 41.1 °F 39.2 °F 87% 30.31 in 10.0 mi NNW 3.5 mph - N/A   Clear
11:15 PM 42.8 °F 40.1 °F 39.2 °F 87% 30.31 in 10.0 mi North 4.6 mph - N/A   Clear
11:35 PM 42.8 °F 41.1 °F 39.2 °F 87% 30.30 in 10.0 mi North 3.5 mph - N/A   Clear
11:55 PM 42.8 °F - 39.2 °F 87% 30.29 in 10.0 mi Calm Calm - N/A   Clear